[[{"header":{"parameterUnit":"m.s-1","parameterCategory":1,"la1":30.2992,"la2":30.254,"lo1":-89.0895,"lo2":-89.0443,"dy":0.0025,"dx":0.0025,"nx":19,"ny":19,"refTime":"2026-03-27T09:00:00:Z","depth":0,"parameterNumber":2,"parameterNumberName":"U-component_of_WINDS"},"data":[0,0,0,2.7038,2.7042,2.7214,2.7214,2.7423,2.7425,0,0,0,0,0,0,0,0,0,0,0,2.6976,2.6977,2.7038,2.7042,2.7213,2.7214,2.7423,2.7425,0,0,0,0,0,0,0,0,0,0,0,2.6975,2.6977,2.6978,2.7043,2.7213,2.7214,2.7422,2.7298,0,0,0,0,0,0,0,0,0,0,2.7133,2.7063,2.6976,2.6978,2.7043,2.7213,2.7215,2.7292,2.7306,2.7339,0,2.7362,0,2.7396,2.7438,2.7438,0,0,0,2.7051,2.7051,2.7108,2.6978,2.7045,2.7213,2.7139,2.73,2.7315,2.7357,2.7365,2.7373,2.74,2.7439,2.744,2.7594,2.7595,0,0,2.7042,2.7001,2.7097,2.7117,2.7085,2.7133,2.7144,2.7309,2.7317,2.7366,2.7378,2.7403,2.744,2.7442,2.7594,2.7594,0,0,0,2.7008,2.6994,2.7047,2.7108,2.714,2.7138,2.715,2.7309,2.733,2.7381,2.7406,2.7441,2.7444,2.7594,2.7594,2.7567,0,0,0,2.7003,2.6975,2.7042,2.7019,2.7136,2.7226,2.7146,2.7318,2.7338,2.7405,2.7441,2.7446,2.7594,2.7594,2.7567,2.756,0,0,0,2.6969,2.6971,2.6991,2.7017,2.7089,2.7224,2.7254,2.7324,2.7353,2.7439,2.7446,2.7593,2.7594,2.7567,2.756,2.7589,0,0,0,2.6921,2.6964,2.699,2.705,2.7087,2.7205,2.7254,2.7344,2.7414,2.7442,2.7594,2.7594,2.7567,2.756,2.7589,2.7604,2.7607,0,0,2.6953,2.6967,2.7005,2.7033,2.7135,2.7182,2.7283,2.7387,2.7434,2.754,2.7544,2.7567,2.756,2.7589,2.7639,2.764,0,0,0,2.7002,2.7029,2.7065,2.7128,2.7208,2.7277,2.737,2.741,2.7501,2.7478,2.7587,2.7584,2.7603,2.7612,2.7614,2.7633,2.7597,2.7597,2.7597,2.6986,2.7044,2.7113,2.7192,2.7255,2.7352,2.7409,2.748,2.752,2.7546,2.7576,2.7599,2.7608,2.761,2.7629,2.7591,2.7591,2.7591,2.7591,2.7039,2.7086,2.7142,2.7227,2.729,2.7365,2.7464,2.7491,2.7573,2.758,2.7599,2.76,2.761,2.763,2.7589,2.7589,2.759,2.759,2.759,2.7033,2.7066,2.7114,2.7215,2.7287,2.737,2.7446,2.7502,2.7555,2.7575,2.7614,2.7615,2.7623,2.759,2.759,2.759,2.759,2.759,2.7591,2.7008,2.7063,2.7118,2.721,2.726,2.7334,2.7438,2.7491,2.7564,2.7599,2.76,2.7639,2.76,2.7588,2.7592,2.7592,2.7592,2.7591,2.7591,2.7036,2.704,2.7124,2.7174,2.729,2.736,2.7433,2.7537,2.759,2.7627,2.7665,2.7626,2.7645,2.7644,2.7634,2.7651,2.7651,2.7651,2.7651,2.7031,2.7046,2.7147,2.7225,2.7309,2.7384,2.7484,2.7567,2.7655,2.7692,2.77,2.7693,2.769,2.771,2.7708,2.77,2.7732,2.7733,2.7733,2.7052,2.7079,2.7148,2.7231,2.7328,2.7411,2.7507,2.7599,2.77,2.7737,2.7724,2.772,2.771,2.7703,2.7735,2.7731,2.7717,0,0]},{"header":{"parameterUnit":"m.s-1","parameterCategory":1,"la1":30.2992,"la2":30.254,"lo1":-89.0895,"lo2":-89.0443,"dy":0.0025,"dx":0.0025,"nx":19,"ny":19,"refTime":"2026-03-27T09:00:00:Z","depth":0,"parameterNumber":3,"parameterNumberName":"V-component_of_WINDS"},"data":[0,0,0,0.3645,0.365,0.39,0.3901,0.4212,0.4215,0,0,0,0,0,0,0,0,0,0,0,0.3564,0.3566,0.3645,0.3651,0.39,0.3901,0.4212,0.4215,0,0,0,0,0,0,0,0,0,0,0,0.3563,0.3565,0.3567,0.3652,0.39,0.3901,0.4211,0.4027,0,0,0,0,0,0,0,0,0,0,0.3786,0.3703,0.3565,0.3567,0.3653,0.3899,0.3901,0.4018,0.4038,0.4095,0,0.4141,0,0.4182,0.4235,0.4236,0,0,0,0.3658,0.3686,0.3759,0.3568,0.3655,0.3899,0.3789,0.4029,0.4052,0.4122,0.4145,0.4157,0.4187,0.4237,0.4238,0.453,0.4531,0,0,0.3644,0.3606,0.3743,0.3773,0.3731,0.3781,0.3797,0.4043,0.4068,0.4146,0.4164,0.4192,0.4239,0.4241,0.4529,0.453,0,0,0,0.36,0.3596,0.3664,0.376,0.3805,0.3788,0.3807,0.4057,0.4082,0.4168,0.4196,0.4241,0.4244,0.4528,0.4529,0.4541,0,0,0,0.3592,0.357,0.3657,0.3637,0.3801,0.3934,0.3815,0.4065,0.4094,0.4194,0.4241,0.4247,0.4527,0.4529,0.4538,0.4555,0,0,0,0.355,0.3566,0.3599,0.3634,0.3739,0.3931,0.397,0.4072,0.4111,0.4236,0.4248,0.4526,0.4528,0.4536,0.4551,0.4619,0,0,0,0.3497,0.3611,0.3598,0.3736,0.3737,0.3934,0.3969,0.412,0.4228,0.4242,0.4527,0.4529,0.4535,0.4549,0.4616,0.467,0.4688,0,0,0.362,0.3624,0.3708,0.3704,0.3892,0.3899,0.4091,0.4231,0.428,0.4444,0.4452,0.4539,0.4551,0.4618,0.48,0.4814,0,0,0,0.3734,0.3794,0.3852,0.395,0.4054,0.4144,0.4255,0.4306,0.4445,0.4355,0.4582,0.4591,0.4632,0.466,0.4672,0.4709,0.454,0.4539,0.4539,0.386,0.3909,0.405,0.4127,0.4222,0.4331,0.4413,0.45,0.4529,0.458,0.4631,0.4735,0.4765,0.4775,0.4813,0.4662,0.4662,0.4662,0.4662,0.4045,0.4137,0.4162,0.4308,0.4359,0.4484,0.4591,0.4605,0.473,0.4703,0.4742,0.4709,0.4788,0.4824,0.4664,0.4663,0.4663,0.4663,0.4663,0.4135,0.4187,0.424,0.4382,0.4486,0.4561,0.4675,0.472,0.4764,0.4801,0.4858,0.4858,0.4864,0.4824,0.4825,0.4825,0.4825,0.4826,0.4826,0.4207,0.4266,0.4356,0.4468,0.4533,0.4624,0.4728,0.4795,0.4881,0.4904,0.4905,0.4927,0.4785,0.4749,0.4832,0.4831,0.483,0.4829,0.4829,0.4382,0.4346,0.4485,0.4549,0.4681,0.4779,0.483,0.496,0.5021,0.5076,0.5086,0.4973,0.4984,0.4975,0.4946,0.5075,0.5075,0.5075,0.5075,0.4458,0.4464,0.4611,0.471,0.4812,0.4869,0.5023,0.5102,0.5181,0.5221,0.5208,0.5172,0.516,0.5178,0.5164,0.5138,0.5313,0.5313,0.5313,0.4568,0.4584,0.4707,0.4776,0.488,0.4969,0.5114,0.5228,0.531,0.5324,0.5254,0.5244,0.5186,0.5164,0.5183,0.5161,0.5113,0,0]}]]